Weather History for Randolph AFB, TX

Change the Weather History Date:

Sunday, January 27, 2013

  Actual Average Record
Temperature  
Mean Temperature 66 °F -  
Max Temperature 77 °F 61 °F 77 °F (1999)
Min Temperature 55 °F 42 °F 28 °F (2004)
Cooling Degree Days 1    
Growing Degree Days 16 (Base 50)    
Moisture  
Dew Point 60 °F    
Average Humidity 96    
Maximum Humidity 100    
Minimum Humidity 64    
Precipitation  
Precipitation 0.00 in - - ()
Sea Level Pressure  
Sea Level Pressure 30.05 in    
Wind  
Wind Speed 7 mph (SSE)    
Max Wind Speed 18 mph    
Max Gust Speed 25 mph    
Visibility 5 miles    
Events Fog    
Averages and records for this station are not official NWS values.
T = Trace of Precipitation, MM = Missing Value Source: NWS Daily Summary

Daily Weather History Graph

Daily Weather History Graph

Search for Another Location

Airport:

Trip Planner

Search our weather history database for the weather conditions in past years. The results will help you decide how hot, cold, wet, or windy it might be!

Date:

Astronomy

Jan. 27, 2013 Rise Set
Actual Time 7:25 AM CST 6:07 PM CST
Civil Twilight 6:59 AM CST 6:32 PM CST
Nautical Twilight 6:31 AM CST 7:01 PM CST
Astronomical Twilight 6:02 AM CST 7:29 PM CST
Moon 6:54 PM CST (1/27) 7:25 AM CST (1/27)
Length of Visible Light 11h 32m
Length of Day
10h 42m
Full, 100% of the Moon is Illuminated
Jan 27
Full
Feb 3
Last Quarter
Feb 10
New
Feb 17
First Quarter
Feb 25
Full

Hourly Weather History & Observations

Time (CST) Temp. Dew Point Humidity Pressure Visibility Wind Dir Wind Speed Gust Speed Precip Events Conditions
12:55 AM 59.7 °F 59.7 °F 100% 30.08 in 3.0 mi SE 8.1 mph - N/A   Clear
1:28 AM 59.0 °F 59.0 °F 100% 30.09 in 2.5 mi SSE 8.1 mph - N/A   Clear
1:33 AM 59.0 °F 59.0 °F 100% 30.09 in 2.5 mi SSE 6.9 mph - N/A   Clear
1:55 AM 58.3 °F 58.3 °F 100% 30.09 in 2.5 mi SSE 5.8 mph - N/A   Clear
2:27 AM 57.2 °F 57.2 °F 100% 30.08 in 1.8 mi SSE 5.8 mph - N/A   Partly Cloudy
2:31 AM 57.2 °F 57.2 °F 100% 30.08 in 1.5 mi SSE 4.6 mph - N/A   Partly Cloudy
2:34 AM 57.2 °F 57.2 °F 100% 30.08 in 1.8 mi South 4.6 mph - N/A   Partly Cloudy
2:38 AM 57.2 °F 57.2 °F 100% 30.08 in 2.0 mi South 4.6 mph - N/A   Clear
2:55 AM 58.3 °F 58.3 °F 100% 30.08 in 2.0 mi South 4.6 mph - N/A   Clear
3:13 AM 57.2 °F 57.2 °F 100% 30.08 in 1.8 mi South 4.6 mph - N/A   Clear
3:21 AM 57.2 °F 57.2 °F 100% 30.08 in 1.5 mi South 4.6 mph - N/A   Clear
3:25 AM 57.2 °F 57.2 °F 100% 30.08 in 1.5 mi South 4.6 mph - N/A   Clear
3:43 AM 57.2 °F 57.2 °F 100% 30.07 in 1.2 mi SSE 4.6 mph - N/A   Clear
3:47 AM 57.2 °F 57.2 °F 100% 30.07 in 1.0 mi SSE 4.6 mph - N/A   Clear
3:50 AM 57.2 °F 57.2 °F 100% 30.07 in 0.8 mi South 4.6 mph - N/A   Clear
3:53 AM 57.2 °F 57.2 °F 100% 30.07 in 0.5 mi South 3.5 mph - N/A Fog Fog
3:54 AM 57.2 °F 57.2 °F 100% 30.07 in 0.5 mi South 3.5 mph - N/A Fog Fog
3:56 AM 57.2 °F 57.2 °F 100% 30.07 in 0.5 mi South 3.5 mph - N/A Fog Fog
3:57 AM 57.2 °F 57.2 °F 100% 30.07 in 0.5 mi South 3.5 mph - N/A Fog Fog
4:09 AM 55.4 °F 55.4 °F 100% 30.07 in 0.2 mi SSE 4.6 mph - N/A Fog Fog
4:46 AM 55.4 °F 55.4 °F 100% 30.06 in 0.2 mi SE 4.6 mph - N/A Fog Fog
4:54 AM 57.2 °F 57.2 °F 100% 30.06 in 0.5 mi SE 3.5 mph - N/A Fog Fog
5:06 AM 57.2 °F 57.2 °F 100% 30.05 in 0.5 mi SE 4.6 mph - N/A Fog Fog
5:09 AM 57.2 °F 57.2 °F 100% 30.05 in 0.8 mi SE 4.6 mph - N/A   Mist
5:12 AM 57.2 °F 57.2 °F 100% 30.05 in 0.8 mi ESE 4.6 mph - N/A   Mist
5:14 AM 57.2 °F 57.2 °F 100% 30.05 in 0.8 mi ESE 4.6 mph - N/A   Mist
5:15 AM 57.2 °F 57.2 °F 100% 30.05 in 0.8 mi ESE 4.6 mph - N/A   Mist
5:16 AM 57.2 °F 57.2 °F 100% 30.05 in 1.0 mi ESE 4.6 mph - N/A   Mist
5:18 AM 57.2 °F 57.2 °F 100% 30.05 in 1.2 mi ESE 4.6 mph - N/A   Partly Cloudy
5:20 AM 57.2 °F 57.2 °F 100% 30.05 in 1.5 mi ESE 4.6 mph - N/A   Partly Cloudy
5:21 AM 57.2 °F 57.2 °F 100% 30.05 in 1.8 mi ESE 4.6 mph - N/A   Clear
5:22 AM 57.2 °F 57.2 °F 100% 30.05 in 2.0 mi ESE 5.8 mph - N/A   Clear
5:23 AM 57.2 °F 57.2 °F 100% 30.05 in 2.0 mi ESE 5.8 mph - N/A   Clear
5:27 AM 59.0 °F 59.0 °F 100% 30.05 in 3.0 mi SE 5.8 mph - N/A   Clear
5:40 AM 59.0 °F 59.0 °F 100% 30.05 in 4.0 mi SE 5.8 mph - N/A   Partly Cloudy
5:55 AM 59.0 °F 59.0 °F 100% 30.05 in 4.0 mi SE 4.6 mph - N/A   Partly Cloudy
6:07 AM 59.0 °F 59.0 °F 100% 30.06 in 4.0 mi SSE 3.5 mph - N/A   Mostly Cloudy
6:12 AM 59.0 °F 59.0 °F 100% 30.06 in 4.0 mi SE 3.5 mph - N/A   Mostly Cloudy
6:26 AM 59.0 °F 59.0 °F 100% 30.06 in 4.0 mi SE 6.9 mph - N/A   Overcast
6:41 AM 59.0 °F 59.0 °F 100% 30.06 in 4.0 mi SSE 6.9 mph - N/A   Overcast
6:42 AM 59.0 °F 59.0 °F 100% 30.06 in 5.0 mi Variable 5.8 mph - N/A   Overcast
6:44 AM 59.0 °F 59.0 °F 100% 30.06 in 5.0 mi South 4.6 mph - N/A   Overcast
6:49 AM 59.0 °F 59.0 °F 100% 30.06 in 8.0 mi SSE 6.9 mph - N/A   Overcast
6:55 AM 59.9 °F 59.9 °F 100% 30.06 in 10.0 mi South 4.6 mph - N/A   Overcast
7:08 AM 60.8 °F 60.8 °F 100% 30.06 in 10.0 mi South 8.1 mph - N/A   Overcast
7:55 AM 61.3 °F 61.3 °F 100% 30.06 in 7.0 mi SSE 6.9 mph - N/A   Overcast
8:21 AM 62.6 °F 62.6 °F 100% 30.07 in 7.0 mi SSE 8.1 mph - N/A   Overcast
8:55 AM 62.8 °F 62.8 °F 100% 30.07 in 5.0 mi SSE 6.9 mph - N/A   Overcast
9:13 AM 62.6 °F 62.6 °F 100% 30.07 in 7.0 mi SSE 8.1 mph - N/A   Overcast
9:32 AM 64.4 °F 64.4 °F 100% 30.07 in 10.0 mi SSE 10.4 mph - N/A   Overcast
9:55 AM 65.1 °F 65.1 °F 100% 30.08 in 10.0 mi South 11.5 mph - N/A   Mostly Cloudy
10:04 AM 66.2 °F 66.2 °F 100% 30.08 in 10.0 mi South 10.4 mph - N/A   Scattered Clouds
10:55 AM 68.4 °F 67.5 °F 97% 30.07 in 10.0 mi South 10.4 mph - N/A   Clear
11:55 AM 71.4 °F 66.0 °F 83% 30.05 in 10.0 mi South 16.1 mph - N/A   Clear
12:55 PM 75.2 °F 65.3 °F 71% 30.00 in 10.0 mi South 13.8 mph 23.0 mph N/A   Clear
1:55 PM 77.4 °F 64.6 °F 65% 29.96 in 10.0 mi South 18.4 mph 25.3 mph N/A   Clear
2:55 PM 77.9 °F 64.9 °F 64% 29.95 in 10.0 mi South 17.3 mph - N/A   Clear
3:55 PM 77.9 °F 65.5 °F 65% 29.95 in 10.0 mi SSE 17.3 mph - N/A   Clear
4:55 PM 75.9 °F 65.7 °F 70% 29.95 in 10.0 mi SSE 17.3 mph - N/A   Clear
5:55 PM 73.2 °F 65.7 °F 77% 29.96 in 10.0 mi SSE 16.1 mph - N/A   Clear
6:55 PM 70.9 °F 66.4 °F 86% 29.97 in 10.0 mi SSE 12.7 mph - N/A   Clear
7:55 PM 69.4 °F 67.1 °F 92% 29.99 in 10.0 mi SSE 12.7 mph - N/A   Clear
8:55 PM 70.5 °F 67.8 °F 91% 29.99 in 10.0 mi SSE 15.0 mph 21.9 mph N/A   Clear
9:55 PM 70.3 °F 68.0 °F 92% 29.99 in 10.0 mi SSE 17.3 mph - N/A   Clear
10:55 PM 70.0 °F 68.4 °F 95% 30.00 in 10.0 mi SSE 15.0 mph - N/A   Clear
11:55 PM 69.4 °F 68.2 °F 96% 30.01 in 10.0 mi South 13.8 mph 21.9 mph N/A   Clear